GVNPGOOY

Guest
Details From GVNP - PRAIA INTERNATIONAL
To GOOY - Dakar Leopold Sedar Senghor Intl
Flight Number -
Tags generated
Created
Modified
Stats Distance 394 nm / 729 km
Max Altitude 35,000 ft / 10,668 m
Waypoints 6
Social Downloads 1
Likes 0
Share VATSIM

Download

Looking for another format? Having issues loading an existing format? Contact us
Advertisement - Login to hide

Notes

Basic altitude profile: - Ascent Rate: 2500ft/min - Ascent Speed: 250kts - Cruise Altitude: 35000ft - Cruise Speed: 420kts - Descent Rate: 1500ft/min - Descent Speed: 250kts Options: - Use NATs: no - Use PACOTS: no - Use low airways: yes - Use high airways: yes

Route

GVNP ITSOS UGAMA UR976 NARAT GOOY

ID Type Via Altitude Latitude Longitude Leg Dist Tot Dist Heading (true) Name
O GVNP APT - 0 ft / 0 m 14.93258˚ -23.48919˚ - 0 nm - PRAIA INTERNATIONAL
ITSOS FIX - 35,000 ft / 10,668 m 16.12167˚ -22.13333˚ 106 nm 106 nm 48° / 48° -
UGAMA FIX - 35,000 ft / 10,668 m 16.28667˚ -21.67000˚ 28 nm 134 nm 70° / 70° -
LUMPO FIX UR976 (AWY-HI) 33,400 ft / 10,180 m 15.68000˚ -20.00139˚ 102 nm 237 nm 110° / 111° -
NARAT FIX UR976 (AWY-HI) 23,500 ft / 7,163 m 14.94333˚ -18.00000˚ 124 nm 361 nm 111° / 111° -
O GOOY APT - 0 ft / 0 m 14.73971˚ -17.49023˚ 32 nm 393 nm 112° / 113° Dakar Leopold Sedar Senghor Intl

Altitude Profile

Advertisement - Login to hide

Weather


0- 5 10 15 20 25 30 35+ Temperature / ° C

Clouds and Precipitation
Forecast for 2017-12-13 18:00 UTC. Updated 2 hours ago

Ground ~20,000 ft ~40,000 ft Winds

GVNP

Details ICAO GVNP (RAI)
Name PRAIA INTERNATIONAL
Region Cape Verde
Timezone Atlantic/Cape_Verde (UTC-1.0)
Stats Elevation 230 ft / 70 m (AMSL)
Location 14.932581° -23.489194°
Runways 2
Magnetic Variation 9.885° W

METAR

GVNP 131700Z 07015KT 9999 FEW035 SCT200 26/15 Q1014 NOSIG

Decode

TAF

TAF GVNP 131100Z 1312/1418 05016KT 9999 SCT018 TEMPO 1312/1318 04018G28KT

Decode

Departure Runways

ID Width Length Bearing (true) Bearing (mag) Surface Threshold Offset Overrun Length
03L 98 ft / 30 m 4,188 ft / 1,277 m 21.85° 31.73° Asphalt 0 ft / 0 m 0 ft / 0 m
03R 148 ft / 45 m 6,906 ft / 2,105 m 21.78° 31.66° Asphalt 650 ft / 198 m 0 ft / 0 m
21L 148 ft / 45 m 6,906 ft / 2,105 m 201.78° 211.66° Asphalt 0 ft / 0 m 0 ft / 0 m
21R 98 ft / 30 m 4,188 ft / 1,277 m 201.86° 211.74° Asphalt 0 ft / 0 m 0 ft / 0 m

GOOY

Details ICAO GOOY (DKR)
Name Dakar Leopold Sedar Senghor Intl
Region Senegal
Timezone Africa/Dakar (UTC+0.0)
Stats Elevation 85 ft / 26 m (AMSL)
Location 14.739711° -17.490226°
Runways 2
Magnetic Variation 7.348° W

METAR

GOOY 131700Z 02016KT CAVOK 24/16 Q1013

Decode

TAF

TAF GOOY 131130Z 1312/1418 02014KT CAVOK= TAF GBYD 131130Z 1312/1418 03007KT CAVOK

Decode

Destination Runways

ID Width Length Bearing (true) Bearing (mag) Surface Threshold Offset Overrun Length
03 98 ft / 30 m 4,921 ft / 1,500 m 22.31° 29.66° Asphalt 0 ft / 0 m 98 ft / 30 m
18 148 ft / 45 m 11,511 ft / 3,509 m 172.57° 179.92° Asphalt 525 ft / 160 m 197 ft / 60 m
21 98 ft / 30 m 4,921 ft / 1,500 m 202.31° 209.66° Asphalt 0 ft / 0 m 1,590 ft / 485 m
36 148 ft / 45 m 11,511 ft / 3,509 m 352.57° 359.92° Asphalt 0 ft / 0 m 197 ft / 60 m

Approach Navaids

Runway Type Ident Frequency Range Bearing (true) Bearing (mag) Slope Elevation
36 Localiser YF 110.30 MHz 18 nm / 33 km 352.33° 359.67° - 65 ft / 20 m (AMSL)
36 Glidescope YF 110.30 MHz 10 nm / 19 km 352.57° 359.92° 3.01° 73 ft / 22 m (AMSL)
36 DME YF 110.30 MHz 18 nm / 33 km - - - 73 ft / 22 m (AMSL)

Popular Alternatives